Meteo pe oră la Alikonovka

Astăzi, 26 Ianuarie, Marţi

Timp Temperatura Precipitaţii Vânt Presiune Umiditate
00:00 +3°C° 0 mm 2 m/s 687 mmHg 46%
01:00 +2°C° 0 mm 3 m/s 687 mmHg 46%
02:00 +2°C° 0 mm 3 m/s 687 mmHg 45%
03:00 +3°C° 0 mm 3 m/s 687 mmHg 45%
04:00 +3°C° 0 mm 3 m/s 688 mmHg 45%
05:00 +4°C° 0 mm 2 m/s 689 mmHg 46%
06:00 +4°C° 0 mm 2 m/s 689 mmHg 46%
07:00 +4°C° 0 mm 2 m/s 689 mmHg 48%
08:00 +4°C° 0 mm 2 m/s 690 mmHg 50%
09:00 +5°C° 0 mm 1 m/s 690 mmHg 53%
10:00 +6°C° 0 mm 1 m/s 690 mmHg 56%
11:00 +7°C° 0 mm 1 m/s 690 mmHg 60%
12:00 +7°C° 0 mm 1 m/s 690 mmHg 64%
13:00 +6°C° 0 mm 2 m/s 690 mmHg 66%
14:00 +6°C° 0 mm 2 m/s 690 mmHg 67%
15:00 +6°C° 0 mm 2 m/s 689 mmHg 69%
16:00 +5°C° 0 mm 2 m/s 689 mmHg 69%
17:00 +3°C° 0 mm 3 m/s 690 mmHg 68%
18:00 +2°C° 0 mm 3 m/s 690 mmHg 68%
19:00 +2°C° 0 mm 3 m/s 689 mmHg 67%
20:00 +2°C° 0 mm 3 m/s 689 mmHg 65%
21:00 +3°C° 0 mm 2 m/s 689 mmHg 64%
22:00 +3°C° 0 mm 2 m/s 689 mmHg 60%
23:00 +3°C° 0 mm 2 m/s 689 mmHg 57%

Mâine, 27 Ianuarie, Miercuri

Timp Temperatura Precipitaţii Vânt Presiune Umiditate
00:00 +3°C° 0 mm 2 m/s 688 mmHg 53%
01:00 +3°C° 0 mm 2 m/s 688 mmHg 50%
02:00 +3°C° 0 mm 2 m/s 688 mmHg 47%
03:00 +4°C° 0 mm 2 m/s 688 mmHg 45%
04:00 +4°C° 0 mm 2 m/s 687 mmHg 44%
05:00 +4°C° 0 mm 2 m/s 687 mmHg 43%
06:00 +4°C° 0 mm 2 m/s 687 mmHg 43%
07:00 +4°C° 0 mm 2 m/s 686 mmHg 43%
08:00 +5°C° 0 mm 2 m/s 686 mmHg 44%
09:00 +5°C° 0 mm 2 m/s 686 mmHg 45%
10:00 +6°C° 0 mm 2 m/s 685 mmHg 50%
11:00 +7°C° 0 mm 2 m/s 685 mmHg 54%
12:00 +8°C° 0 mm 2 m/s 684 mmHg 59%
13:00 +8°C° 0 mm 2 m/s 684 mmHg 62%
14:00 +8°C° 0 mm 2 m/s 683 mmHg 64%
15:00 +7°C° 0 mm 2 m/s 683 mmHg 67%
16:00 +7°C° 0 mm 2 m/s 683 mmHg 65%
17:00 +6°C° 0 mm 2 m/s 683 mmHg 64%
18:00 +5°C° 0 mm 2 m/s 683 mmHg 63%
19:00 +5°C° 0 mm 2 m/s 682 mmHg 59%
20:00 +5°C° 0 mm 2 m/s 682 mmHg 56%
21:00 +5°C° 0 mm 2 m/s 682 mmHg 53%
22:00 +4°C° 0 mm 2 m/s 682 mmHg 52%
23:00 +4°C° 0 mm 2 m/s 682 mmHg 51%

Poimâine, 28 Ianuarie, Joi

Timp Temperatura Precipitaţii Vânt Presiune Umiditate
00:00 +3°C° 0 mm 3 m/s 682 mmHg 49%
01:00 +4°C° 0 mm 2 m/s 682 mmHg 49%
02:00 +4°C° 0 mm 2 m/s 681 mmHg 49%
03:00 +5°C° 0 mm 2 m/s 681 mmHg 48%
04:00 +5°C° 0 mm 2 m/s 681 mmHg 49%
05:00 +5°C° 0 mm 2 m/s 681 mmHg 49%
06:00 +5°C° 0 mm 2 m/s 680 mmHg 49%
07:00 +5°C° 0 mm 2 m/s 680 mmHg 50%
08:00 +6°C° 0 mm 2 m/s 680 mmHg 50%
09:00 +6°C° 0 mm 2 m/s 680 mmHg 51%
10:00 +8°C° 0 mm 1 m/s 681 mmHg 54%
11:00 +9°C° 0 mm 1 m/s 681 mmHg 56%
12:00 +11°C° 0 mm 1 m/s 681 mmHg 59%
13:00 +9°C° 0 mm 2 m/s 681 mmHg 62%
14:00 +8°C° 0 mm 3 m/s 681 mmHg 64%
15:00 +7°C° 0 mm 4 m/s 681 mmHg 67%
16:00 +7°C° 0.1 mm 3 m/s 681 mmHg 74%
17:00 +4°C° 0.1 mm 3 m/s 681 mmHg 81%
18:00 +4°C° 0.1 mm 2 m/s 681 mmHg 88%
19:00 +4°C° 0.1 mm 2 m/s 681 mmHg 91%
20:00 +5°C° 0.1 mm 1 m/s 682 mmHg 93%
21:00 +4°C° 0.1 mm 1 m/s 682 mmHg 95%
22:00 +4°C° 0.2 mm 1 m/s 682 mmHg 96%
23:00 +4°C° 0.2 mm 1 m/s 682 mmHg 97%

29 Ianuarie, Vineri

Timp Temperatura Precipitaţii Vânt Presiune Umiditate
00:00 +3°C° 0.2 mm 2 m/s 683 mmHg 98%
01:00 +2°C° 0.8 mm 2 m/s 682 mmHg 97%
02:00 +2°C° 0.8 mm 2 m/s 682 mmHg 97%
03:00 +1°C° 0.8 mm 2 m/s 682 mmHg 96%
04:00 +1°C° 0.1 mm 2 m/s 682 mmHg 94%
05:00 +1°C° 0.1 mm 1 m/s 682 mmHg 92%
06:00 +1°C° 0.1 mm 1 m/s 682 mmHg 89%
07:00 +1°C° 0.1 mm 1 m/s 682 mmHg 91%
08:00 +1°C° 0.1 mm 1 m/s 682 mmHg 92%
09:00 +2°C° 0.1 mm 1 m/s 683 mmHg 93%
10:00 +2°C° 0.4 mm 1 m/s 683 mmHg 94%
11:00 +2°C° 0.4 mm 1 m/s 683 mmHg 95%
12:00 +2°C° 0.4 mm 1 m/s 683 mmHg 96%
13:00 +2°C° 0.5 mm 1 m/s 683 mmHg 97%
14:00 +2°C° 0.5 mm 1 m/s 683 mmHg 97%
15:00 +2°C° 0.5 mm 1 m/s 683 mmHg 97%
16:00 +2°C° 0.6 mm 1 m/s 684 mmHg 97%
17:00 +1°C° 0.6 mm 1 m/s 684 mmHg 97%
18:00 +1°C° 0.6 mm 1 m/s 685 mmHg 97%
19:00 +1°C° 0 mm 1 m/s 685 mmHg 95%
20:00 0°C° 0 mm 1 m/s 685 mmHg 94%
21:00 -2°C° 0 mm 2 m/s 685 mmHg 93%
22:00 -2°C° 0 mm 2 m/s 685 mmHg 89%
23:00 -3°C° 0 mm 2 m/s 685 mmHg 85%

30 Ianuarie, Sâmbătă

Timp Temperatura Precipitaţii Vânt Presiune Umiditate
00:00 -3°C° 0 mm 2 m/s 685 mmHg 82%
01:00 -3°C° 0 mm 2 m/s 685 mmHg 78%
02:00 -3°C° 0 mm 2 m/s 684 mmHg 74%
03:00 -4°C° 0 mm 2 m/s 684 mmHg 70%
04:00 -4°C° 0 mm 2 m/s 684 mmHg 67%
05:00 -3°C° 0 mm 2 m/s 683 mmHg 64%
06:00 -3°C° 0 mm 2 m/s 683 mmHg 60%
07:00 -3°C° 0 mm 2 m/s 683 mmHg 60%
08:00 -2°C° 0 mm 2 m/s 683 mmHg 60%
09:00 +1°C° 0 mm 1 m/s 684 mmHg 60%
10:00 +2°C° 0 mm 1 m/s 683 mmHg 63%
11:00 +3°C° 0 mm 1 m/s 683 mmHg 65%
12:00 +4°C° 0 mm 1 m/s 683 mmHg 67%
13:00 +5°C° 0 mm 1 m/s 682 mmHg 69%
14:00 +5°C° 0 mm 1 m/s 682 mmHg 72%
15:00 +4°C° 0 mm 2 m/s 682 mmHg 75%
16:00 +3°C° 0 mm 2 m/s 682 mmHg 74%
17:00 +2°C° 0 mm 2 m/s 681 mmHg 73%
18:00 +1°C° 0 mm 2 m/s 681 mmHg 73%
19:00 +1°C° 0 mm 2 m/s 681 mmHg 70%
20:00 +1°C° 0 mm 2 m/s 681 mmHg 67%
21:00 +1°C° 0 mm 2 m/s 681 mmHg 64%
22:00 +1°C° 0 mm 2 m/s 681 mmHg 62%
23:00 +1°C° 0 mm 2 m/s 681 mmHg 60%

31 Ianuarie, Duminică

Timp Temperatura Precipitaţii Vânt Presiune Umiditate
00:00 +1°C° 0 mm 2 m/s 680 mmHg 58%
01:00 +1°C° 0 mm 2 m/s 680 mmHg 60%
02:00 +3°C° 0 mm 1 m/s 680 mmHg 61%
03:00 +3°C° 0 mm 1 m/s 679 mmHg 62%
04:00 +3°C° 0 mm 1 m/s 679 mmHg 64%
05:00 +3°C° 0 mm 1 m/s 679 mmHg 66%
06:00 +3°C° 0 mm 1 m/s 678 mmHg 67%
07:00 +3°C° 0 mm 1 m/s 679 mmHg 69%
08:00 +3°C° 0 mm 1 m/s 679 mmHg 71%
09:00 +3°C° 0 mm 1 m/s 680 mmHg 72%
10:00 +3°C° 0 mm 2 m/s 680 mmHg 74%
11:00 +4°C° 0 mm 2 m/s 681 mmHg 75%
12:00 +5°C° 0 mm 2 m/s 681 mmHg 77%
13:00 +3°C° 0.1 mm 4 m/s 682 mmHg 82%
14:00 +1°C° 0.1 mm 5 m/s 683 mmHg 87%
15:00 +1°C° 0.1 mm 6 m/s 683 mmHg 92%
16:00 0°C° 0.1 mm 5 m/s 684 mmHg 90%
17:00 -1°C° 0.1 mm 4 m/s 685 mmHg 87%
18:00 0°C° 0.1 mm 3 m/s 686 mmHg 84%
19:00 -1°C° 0 mm 2 m/s 686 mmHg 86%
20:00 -1°C° 0 mm 2 m/s 687 mmHg 87%
21:00 0°C° 0 mm 1 m/s 687 mmHg 89%
22:00 0°C° 0 mm 1 m/s 687 mmHg 87%
23:00 0°C° 0 mm 1 m/s 687 mmHg 86%
Arată mai mult

Formular de consimțământ

Meteoprog și furnizorii noștri de servicii pot stoca și accesa date personale, precum cookies, identificatori de dispozitiv sau alte tehnologii similare pe dispozitivul dumneavoastră și procesa astfel de date pentru a personaliza conținutul și reclamele, dar și pentru a oferi caracteristici de social media și pentru a analiza traficul.

  • Stocarea și/sau accesarea informațiilor pe dispozitivul dumneavoastră

    Cookies, identificatori de dispozitiv sau alte informații pot fi stocate sau accesate pe dispozitiv în scopurile indicate mai sus.

  • Reclame și conținut personalizat, evaluarea reclamelor și a conținutului, informații despre audiențe și dezvoltarea produselor

    Reclamele și conținutul pot fi personalizate pe baza unui profil. Pot fi adăugate date suplimentare pentru a personaliza mai bine reclamele și conținutul. Performanța reclamelor și conținutului poate fi măsurată. Pot fi obținute informații despre utilizatorii care au văzut reclamele și conținutul. Aceste date pot fi utilizate pentru a dezvolta sau îmbunătăți experiența utilizatorilor, sistemele și software-ul.

Dând clic pe ‘Sunt de acord’, permiteți utilizarea cookie-urilor menționate, a identificatorilor de dispozitiv, balizelor web sau altor tehnologii similare. Setările pot fi modificate din browser-ul dispozitivului dumneavoastră.

În anumite scopuri, interesele legitime pot prima asupra consimțământului. Puteți citi mai multe informații în acest sens în Politica privind Confidențialitatea Datelor și Cookie.